Location: Caltech
(34.1382°N, 118.1253°W)
Time: 03:09:18
(UTC-07:00)

Tiros 1 despin weight - Visible Passes

Search period start: 29 September 2016 00:00
Search period end: 09 October 2016 00:00
Orbit: 596 x 644 km, 48.2° (Epoch: 29 September)

Date Brightness Start Highest point End Pass type
(mag) Time Alt. Az. Time Alt. Az. Time Alt. Az.
29 Sep ? 04:16:17 15° N 04:16:19 15° N 04:18:59 10° NE visible
29 Sep ? 05:54:38 10° NW 05:58:53 38° NNE 06:03:11 10° E visible
30 Sep ? 04:33:02 18° N 04:34:01 20° NNE 04:37:22 10° ENE visible
30 Sep ? 06:11:40 10° NW 06:16:13 72° NE 06:20:48 10° ESE visible
01 Oct ? 04:49:55 23° N 04:51:35 29° NNE 04:55:35 10° E visible
02 Oct ? 05:06:55 28° NNW 05:09:00 50° NNE 05:13:27 10° ESE visible
03 Oct ? 03:46:54 14° ENE 03:46:54 14° ENE 03:47:53 10° ENE visible
03 Oct ? 05:24:04 30° NW 05:26:15 83° SW 05:30:49 10° SE visible
04 Oct ? 04:04:11 21° E 04:04:11 21° E 04:05:57 10° E visible
04 Oct ? 05:41:21 25° W 05:43:21 39° SW 05:47:36 10° SSE visible
05 Oct ? 04:21:36 25° ESE 04:21:36 25° ESE 04:23:36 10° ESE visible
05 Oct ? 05:58:46 15° WSW 06:00:18 18° SW 06:03:24 10° S visible
05 Oct ? 20:01:35 10° S 20:03:06 17° SSE 20:03:06 17° SSE visible
06 Oct ? 04:39:07 21° SSE 04:39:07 21° SSE 04:40:43 10° SE visible
06 Oct ? 20:17:44 10° SSW 20:20:32 34° S 20:20:32 34° S visible
07 Oct ? 04:56:43 12° S 04:56:43 12° S 04:57:07 10° S visible
07 Oct ? 18:55:34 10° SSE 18:58:01 15° SE 19:00:26 10° E visible
07 Oct ? 20:34:42 10° SW 20:37:49 44° WSW 20:37:49 44° WSW visible
08 Oct ? 19:10:59 10° SSW 19:14:56 32° SE 19:17:48 16° E visible
08 Oct ? 20:52:14 10° WSW 20:54:57 30° WNW 20:54:57 30° WNW visible
